The Dalles, WA

3:29 PM PST on November 15, 2019 (GMT -0800)
Columbia Gorge Regional-The Dalles

Weather History for KDLS - September, 2019

Change the Weather History Date:

Wednesday, September 25, 2019

  Actual Average Record
Temperature  
Mean Temperature 65 °F -  
Max Temperature 77 °F 76 °F 94 °F (1974)
Min Temperature 55 °F 50 °F 33 °F (1972)
Growing Degree Days 15 (Base 50)    
Moisture  
Dew Point 46 °F    
Average Humidity 54    
Maximum Humidity 75    
Minimum Humidity 28    
Precipitation  
Precipitation 0.00 in - - ()
Sea Level Pressure  
Sea Level Pressure 30.16 in    
Wind  
Wind Speed 8 mph (West)    
Max Wind Speed 14 mph    
Max Gust Speed 17 mph    
Visibility 10 miles    
Events      
Averages and records for this station are not official NWS values.
T = Trace of Precipitation, MM = Missing Value Source: NWS Daily Summary

Daily Weather History Graph

Daily Weather History Graph

Search for Another Location

Airport or City:

Astronomy

Sep. 25, 2019 Rise Set
Actual Time 6:55 AM PDT 6:56 PM PDT
Civil Twilight 6:25 AM PDT 7:26 PM PDT
Nautical Twilight 5:50 AM PDT 8:00 PM PDT
Astronomical Twilight 5:15 AM PDT 8:36 PM PDT
Moon 2:39 AM PDT (9/25) 5:46 PM PDT (9/25)
Length of Visible Light 13h 00m
Length of Day
12h 01m
Waning Crescent, 13% of the Moon is Illuminated
Sep 25
Waning Crescent
Sep 28
New
Oct 5
First Quarter
Oct 13
Full
Oct 21
Last Quarter

Hourly Weather History & Observations

Time (PDT) Temp. Dew Point Humidity Pressure Visibility Wind Dir Wind Speed Gust Speed Precip Events Conditions
12:53 AM 63.0 °F 48.0 °F 58% 30.17 in 10.0 mi WNW 11.5 mph - N/A   Clear
1:53 AM 63.0 °F 48.0 °F 58% 30.20 in 10.0 mi WSW 9.2 mph 17.3 mph N/A   Clear
2:53 AM 61.0 °F 46.9 °F 60% 30.21 in 10.0 mi WNW 8.1 mph - N/A   Clear
3:53 AM 60.1 °F 48.9 °F 67% 30.20 in 10.0 mi NW 11.5 mph - N/A   Clear
4:53 AM 59.0 °F 48.9 °F 69% 30.21 in 10.0 mi NW 13.8 mph - N/A   Clear
5:53 AM 55.9 °F 48.0 °F 75% 30.21 in 10.0 mi West 5.8 mph - N/A   Clear
6:53 AM 55.0 °F 46.9 °F 74% 30.22 in 10.0 mi SSW 4.6 mph - N/A   Clear
7:53 AM 57.0 °F 48.0 °F 72% 30.24 in 10.0 mi West 4.6 mph - N/A   Clear
8:53 AM 60.1 °F 48.9 °F 67% 30.26 in 10.0 mi NW 9.2 mph - N/A   Clear
9:53 AM 63.0 °F 48.0 °F 58% 30.25 in 10.0 mi Variable 3.5 mph - N/A   Clear
10:53 AM 66.0 °F 48.0 °F 52% 30.25 in 10.0 mi NW 9.2 mph - N/A   Clear
11:53 AM 68.0 °F 46.0 °F 45% 30.24 in 10.0 mi Variable 3.5 mph - N/A   Clear
12:53 PM 70.0 °F 45.0 °F 41% 30.22 in 10.0 mi SSE 4.6 mph - N/A   Clear
1:53 PM 72.0 °F 42.1 °F 34% 30.19 in 10.0 mi Variable 4.6 mph - N/A   Clear
2:53 PM 75.0 °F 42.1 °F 31% 30.16 in 10.0 mi ENE 3.5 mph - N/A   Clear
3:53 PM 75.0 °F 41.0 °F 29% 30.14 in 10.0 mi North 3.5 mph - N/A   Clear
4:53 PM 75.0 °F 39.9 °F 28% 30.12 in 10.0 mi Calm Calm - N/A   Clear
5:53 PM 73.9 °F 39.9 °F 29% 30.10 in 10.0 mi North 4.6 mph - N/A   Clear
6:53 PM 69.1 °F 44.1 °F 40% 30.08 in 10.0 mi NW 6.9 mph - N/A   Clear
7:53 PM 64.0 °F 46.9 °F 54% 30.08 in 10.0 mi SW 4.6 mph - N/A   Clear
8:53 PM 63.0 °F 45.0 °F 52% 30.08 in 10.0 mi Calm Calm - N/A   Clear
9:53 PM 61.0 °F 48.0 °F 62% 30.06 in 10.0 mi South 6.9 mph - N/A   Clear
10:53 PM 59.0 °F 46.0 °F 62% 30.04 in 10.0 mi Variable 5.8 mph - N/A   Clear
11:53 PM 57.9 °F 48.9 °F 72% 30.02 in 10.0 mi SSW 6.9 mph - N/A   Clear